Date,TemperatureHighF,TemperatureAvgF,TemperatureLowF,DewpointHighF,DewpointAvgF,DewpointLowF,HumidityHigh,HumidityAvg,HumidityLow,PressureMaxIn,PressureMinIn,WindSpeedMaxMPH,WindSpeedAvgMPH,GustSpeedMaxMPH,PrecipitationSumIn
2013-5-1,77.0,67.1,58.0,51.0,43.1,33.0,75,46,22,30.40,30.28,7,2,15,0.00
2013-5-2,75.0,64.4,52.0,41.0,37.2,32.0,54,37,27,30.47,30.32,4,1,10,0.00
2013-5-3,77.0,66.9,54.0,46.0,41.6,36.0,63,41,29,30.37,30.27,6,1,16,0.00
2013-5-4,74.0,63.8,53.0,44.0,40.6,37.0,61,44,29,30.35,30.21,6,1,13,0.00
2013-5-5,73.0,63.6,51.0,45.0,42.3,39.0,73,47,34,30.26,30.15,4,1,10,0.00
2013-5-6,71.0,62.5,51.0,41.0,37.7,33.0,58,41,26,30.22,30.08,2,0,8,0.00
2013-5-7,75.0,65.7,56.0,52.0,49.7,40.0,78,57,43,30.18,30.07,3,0,8,0.00
2013-5-8,70.0,63.0,57.0,60.0,54.7,49.0,94,75,63,30.11,29.98,5,1,14,0.09
2013-5-9,67.0,60.9,56.0,60.0,57.1,55.0,97,88,74,30.01,29.92,3,0,11,0.37
2013-5-10,73.0,60.7,53.0,63.0,54.3,-99.9,95,84,64,30.01,29.78,6,1,20,0.23
2013-5-11,59.0,54.7,49.0,58.0,49.8,43.0,97,84,67,29.84,29.71,11,4,24,0.28
2013-5-12,51.0,44.9,39.0,45.0,34.7,-99.9,93,71,45,29.98,29.75,17,7,33,0.02
2013-5-13,50.0,42.6,36.0,35.0,31.2,28.0,79,65,45,30.19,29.98,12,6,29,0.02
2013-5-14,59.0,47.3,36.0,37.0,33.2,27.0,88,61,32,30.24,30.04,4,1,12,0.00
2013-5-15,81.0,60.3,46.0,59.0,44.6,33.0,91,59,38,30.04,29.57,17,4,37,0.07
2013-5-16,77.0,60.5,54.0,46.0,23.1,-99.9,63,43,23,30.05,29.78,14,5,30,0.01
2013-5-17,64.0,55.3,46.0,43.0,35.8,-99.9,77,57,33,30.29,30.05,2,0,6,0.00
2013-5-18,70.0,57.7,43.0,48.0,42.7,39.0,88,60,38,30.33,30.21,4,1,10,0.00
2013-5-19,80.0,67.7,58.0,62.0,56.3,47.0,82,68,50,30.21,30.03,4,1,12,0.00
2013-5-20,83.0,72.8,64.0,66.0,62.1,58.0,81,70,54,30.09,29.91,5,1,13,0.00
2013-5-21,85.0,71.4,62.0,71.0,63.6,57.0,94,77,59,29.96,29.78,6,1,29,0.08
2013-5-22,86.0,71.6,58.0,71.0,64.8,57.0,97,80,54,29.84,29.67,8,1,24,0.15
2013-5-23,78.0,67.8,45.0,64.0,58.2,43.0,93,73,50,29.94,29.74,10,3,25,0.10
2013-5-24,52.0,43.4,38.0,43.0,38.2,36.0,95,84,55,30.26,29.94,6,2,18,0.20
2013-5-25,58.0,50.2,43.0,39.0,35.4,32.0,79,58,39,30.29,30.20,10,4,23,0.01
2013-5-26,63.0,54.2,45.0,39.0,35.0,29.0,72,50,31,30.27,30.19,10,4,22,0.00
2013-5-27,67.0,57.9,45.0,45.0,36.8,30.0,75,48,26,30.34,30.20,6,1,13,0.00
2013-5-28,63.0,57.3,53.0,59.0,49.4,37.0,97,77,49,30.22,29.99,5,1,11,0.52
2013-5-29,82.0,71.0,59.0,68.0,62.3,58.0,98,77,51,30.05,29.95,18,4,29,0.88
2013-5-30,90.0,79.2,67.0,66.0,62.5,57.0,84,59,33,30.14,30.05,8,3,19,0.08
2013-5-31,92.0,81.1,71.0,68.0,63.9,60.0,79,58,35,30.10,29.95,8,2,20,0.00